Darrow, LA

9:10 AM CST on February 26, 2017 (GMT -0600)
Gonzales

Weather History for KL38 - February, 2014

Change the Weather History Date:

Thursday, February 20, 2014

  Actual Average (KBTR) Record (KBTR)
Temperature  
Mean Temperature 72 °F -  
Max Temperature 79 °F 68 °F 87 °F (1917)
Min Temperature 66 °F 46 °F 25 °F (1908)
Cooling Degree Days 8    
Growing Degree Days 22 (Base 50)    
Moisture  
Dew Point 68 °F    
Average Humidity 88    
Maximum Humidity 98    
Minimum Humidity 64    
Precipitation  
Precipitation 0.10 in - - ()
Sea Level Pressure  
Sea Level Pressure 29.90 in    
Wind  
Wind Speed 8 mph (South)    
Max Wind Speed 20 mph    
Max Gust Speed 31 mph    
Visibility 10 miles    
Events Rain , Thunderstorm    
Averages and records for this station are not official NWS values.
T = Trace of Precipitation, MM = Missing Value Source: NWS Daily Summary

Daily Weather History Graph

Daily Weather History Graph

Search for Another Location

Airport or City:

Trip Planner

Search our weather history database for the weather conditions in past years. The results will help you decide how hot, cold, wet, or windy it might be!

Date:

Astronomy

Feb. 20, 2014 Rise Set
Actual Time 6:39 AM CST 5:56 PM CST
Civil Twilight 6:14 AM CST 6:20 PM CST
Nautical Twilight 5:46 AM CST 6:48 PM CST
Astronomical Twilight 5:19 AM CST 7:16 PM CST
Moon 11:23 PM CST (2/20) 9:47 AM CST (2/20)
Length of Visible Light 12h 05m
Length of Day
11h 17m
Waning Gibbous, 70% of the Moon is Illuminated
Feb 20
Waning Gibbous
Feb 22
Last Quarter
Mar 1
New
Mar 8
First Quarter
Mar 16
Full

Hourly Weather History & Observations

Time (CST) Temp. Dew Point Humidity Pressure Visibility Wind Dir Wind Speed Gust Speed Precip Events Conditions
12:15 AM 67.5 °F 66.2 °F 96% 29.93 in 10.0 mi SSE 5.8 mph - N/A   Overcast
12:35 AM 67.8 °F 66.2 °F 95% 29.92 in 10.0 mi SSE 5.8 mph - N/A   Overcast
12:55 AM 67.6 °F 66.4 °F 96% 29.92 in 10.0 mi SSE 5.8 mph - N/A   Overcast
1:15 AM 68.0 °F 66.4 °F 95% 29.93 in 10.0 mi SSE 5.8 mph - N/A   Overcast
1:35 AM 68.0 °F 66.4 °F 95% 29.93 in 10.0 mi SSE 4.6 mph - N/A   Overcast
1:55 AM 68.0 °F 66.4 °F 95% 29.93 in 10.0 mi SSE 4.6 mph - N/A   Overcast
2:15 AM 68.2 °F 66.6 °F 95% 29.92 in 10.0 mi SSE 6.9 mph - N/A   Overcast
2:35 AM 68.4 °F 66.6 °F 94% 29.92 in 10.0 mi SSE 5.8 mph - N/A   Overcast
2:55 AM 68.0 °F 66.2 °F 94% 29.91 in 10.0 mi SSE 6.9 mph - N/A   Overcast
3:15 AM 68.5 °F 66.4 °F 93% 29.91 in 10.0 mi SSE 5.8 mph - N/A   Overcast
3:35 AM 68.5 °F 66.6 °F 93% 29.91 in 10.0 mi SSE 5.8 mph - N/A   Overcast
3:55 AM 68.4 °F 66.6 °F 94% 29.91 in 10.0 mi SSE 5.8 mph - N/A   Overcast
4:15 AM 68.5 °F 66.7 °F 94% 29.91 in 10.0 mi South 6.9 mph - N/A   Overcast
4:35 AM 68.2 °F 66.4 °F 94% 29.91 in 10.0 mi South 4.6 mph - N/A   Overcast
4:55 AM 68.2 °F 66.6 °F 95% 29.91 in 10.0 mi South 3.5 mph - N/A   Overcast
5:15 AM 68.2 °F 66.4 °F 94% 29.91 in 10.0 mi SSE 6.9 mph - N/A   Overcast
5:35 AM 68.4 °F 66.2 °F 93% 29.92 in 10.0 mi SSE 8.1 mph - N/A   Overcast
5:55 AM 68.0 °F 65.7 °F 92% 29.92 in 10.0 mi SSE 8.1 mph - N/A   Overcast
6:15 AM 67.6 °F 65.5 °F 93% 29.92 in 10.0 mi SSE 8.1 mph - N/A   Overcast
6:35 AM 67.3 °F 65.5 °F 94% 29.93 in 10.0 mi North - - N/A   Overcast
6:55 AM 66.9 °F 65.5 °F 95% 29.93 in 10.0 mi SSE 6.9 mph - N/A   Overcast
7:15 AM 66.7 °F 65.5 °F 96% 29.93 in 10.0 mi Calm Calm - N/A   Overcast
7:35 AM 67.1 °F 65.7 °F 95% 29.93 in 10.0 mi SSE 3.5 mph - N/A   Overcast
7:55 AM 68.2 °F 66.4 °F 94% 29.93 in 10.0 mi SE 6.9 mph - N/A   Overcast
8:15 AM 69.1 °F 66.7 °F 92% 29.93 in 10.0 mi SSE 8.1 mph - N/A   Overcast
8:35 AM 69.4 °F 66.6 °F 91% 29.94 in 10.0 mi SSE 10.4 mph - N/A   Overcast
8:55 AM 70.7 °F 67.1 °F 88% 29.94 in 10.0 mi South 12.7 mph 18.4 mph N/A   Overcast
9:15 AM 70.9 °F 67.5 °F 89% 29.94 in 10.0 mi South 9.2 mph - N/A   Overcast
9:35 AM 72.1 °F 67.6 °F 86% 29.95 in 10.0 mi South 12.7 mph 19.6 mph N/A   Overcast
9:55 AM 73.0 °F 67.6 °F 83% 29.95 in 10.0 mi South 8.1 mph 18.4 mph N/A   Overcast
10:15 AM 74.3 °F 66.6 °F 77% 29.95 in 10.0 mi South 17.3 mph 24.2 mph N/A   Mostly Cloudy
10:35 AM 77.0 °F 66.9 °F 71% 29.95 in 10.0 mi South 12.7 mph 19.6 mph N/A   Mostly Cloudy
10:55 AM 77.7 °F 65.8 °F 67% 29.95 in 10.0 mi South 17.3 mph 31.1 mph N/A   Scattered Clouds
12:35 PM 79.0 °F 65.8 °F 64% 29.91 in 10.0 mi SSW 17.3 mph 28.8 mph N/A   Overcast
1:35 PM 79.0 °F 66.0 °F 64% 29.89 in 10.0 mi South 16.1 mph 26.5 mph N/A   Overcast
2:15 PM 79.0 °F 67.8 °F 69% 29.89 in 10.0 mi South 13.8 mph 25.3 mph N/A   Overcast
2:35 PM 79.9 °F 68.0 °F 67% 29.87 in 10.0 mi South 19.6 mph 25.3 mph N/A   Mostly Cloudy
5:15 PM 76.6 °F 68.5 °F 76% 29.85 in 10.0 mi SSW 15.0 mph 25.3 mph N/A   Overcast
5:35 PM 76.1 °F 68.9 °F 78% 29.85 in 10.0 mi SSW 10.4 mph 17.3 mph N/A   Overcast
5:55 PM 75.2 °F 69.1 °F 81% 29.83 in 10.0 mi South 12.7 mph 23.0 mph N/A   Overcast
6:15 PM 74.8 °F 68.9 °F 82% 29.83 in 10.0 mi South 9.2 mph 20.7 mph N/A   Overcast
6:35 PM 73.8 °F 68.9 °F 85% 29.84 in 10.0 mi South 9.2 mph - N/A   Overcast
6:55 PM 74.3 °F 69.4 °F 85% 29.84 in 10.0 mi South 11.5 mph - N/A   Overcast
7:15 PM 73.9 °F 69.4 °F 86% 29.84 in 10.0 mi South 13.8 mph 21.9 mph N/A Thunderstorm Overcast
7:35 PM 73.9 °F 69.8 °F 87% 29.84 in 10.0 mi South 15.0 mph 23.0 mph N/A   Overcast
7:55 PM 73.8 °F 69.4 °F 86% 29.84 in 10.0 mi South 13.8 mph 23.0 mph N/A   Overcast
8:15 PM 73.8 °F 69.8 °F 87% 29.85 in 10.0 mi South 12.7 mph 20.7 mph N/A   Overcast
8:35 PM 73.6 °F 69.8 °F 88% 29.84 in 10.0 mi South 12.7 mph 19.6 mph N/A   Overcast
8:55 PM 72.9 °F 70.2 °F 91% 29.84 in 10.0 mi South 10.4 mph 18.4 mph N/A   Overcast
9:15 PM 73.4 °F 70.0 °F 89% 29.84 in 10.0 mi South 11.5 mph 20.7 mph N/A   Overcast
9:35 PM 73.4 °F 70.0 °F 89% 29.87 in 10.0 mi SSW 12.7 mph 23.0 mph N/A   Overcast
9:55 PM 73.4 °F 69.8 °F 88% 29.87 in 10.0 mi SSW 13.8 mph 19.6 mph N/A   Overcast
10:15 PM 72.5 °F 70.2 °F 92% 29.87 in 10.0 mi SSW 10.4 mph 17.3 mph N/A Rain Light Rain
10:35 PM 72.5 °F 70.2 °F 92% 29.88 in 10.0 mi SSW 10.4 mph 19.6 mph N/A Rain Light Rain
10:55 PM 72.1 °F 70.2 °F 93% 29.89 in 10.0 mi SSW 9.2 mph 19.6 mph 0.01 in Rain , Thunderstorm Light Thunderstorms and Rain
11:15 PM 71.6 °F 70.3 °F 96% 29.90 in 10.0 mi SSW 8.1 mph - 0.02 in Rain Light Rain
11:35 PM 71.2 °F 70.3 °F 97% 29.90 in 7.0 mi SSW 6.9 mph - 0.05 in Rain , Thunderstorm Rain
11:55 PM 71.1 °F 70.3 °F 98% 29.93 in 7.0 mi West 6.9 mph - 0.09 in Rain , Thunderstorm Rain